Hourly Data Report for October 12, 2020

OTTAWA INTL A
ONTARIO
Current Station Operator: NAVCAN

45°19'00.000" N
75°40'00.000" W
114.90 m
6106001
71628
YOW

Download Data

Hourly Data (October 2020)
Hourly Data Report for October 12, 2020
TIME Temp Definition
°C
Dew Point Definition
°C
Rel Hum Definition
%
Wind Dir Definition
10's deg

Wind Spd Definition
km/h
Visibility Definition
km
Stn Press Definition
kPa
Hmdx Definition


Wind Chill Definition


Weather Definition


00:00 2.1 -2.4 72 5 17 24.1 101.14     LegendNANA
01:00 2.0 -2.2 74 6 21 24.1 101.11     Clear
02:00 1.6 -2.1 77 6 19 24.1 101.07     LegendNANA
03:00 1.4 -2.0 78 6 24 24.1 101.01     LegendNANA
04:00 1.0 -1.9 81 6 21 24.1 100.99     Clear
05:00 1.1 -2.3 78 6 18 24.1 101.00     LegendNANA
06:00 0.8 -2.4 79 7 19 24.1 101.00     LegendNANA
07:00 1.7 -2.3 75 7 22 24.1 101.01     Clear
08:00 3.7 -1.2 70 8 23 24.1 101.01     LegendNANA
09:00 5.5 -0.2 67 7 23 24.1 100.99     LegendNANA
10:00 7.2 0.6 62 8 15 24.1 100.94     Mostly Cloudy
11:00 8.8 1.1 58 8 15 24.1 100.90     LegendNANA
12:00 10.4 2.5 58 7 14 24.1 100.83     LegendNANA
13:00 11.1 2.6 56 6 23 24.1 100.73     Mostly Cloudy
14:00 11.6 3.0 55 7 24 24.1 100.64     LegendNANA
15:00 12.6 4.4 57 6 20 24.1 100.57     LegendNANA
16:00 13.6 4.6 54 7 22 24.1 100.50     Mostly Cloudy
17:00 13.2 3.5 51 8 19 24.1 100.43     LegendNANA
18:00 11.8 3.1 55 8 23 24.1 100.37     LegendNANA
19:00 11.2 3.0 57 8 21 24.1 100.36     Mainly Clear
20:00 11.5 3.0 56 8 22 24.1 100.32     LegendNANA
21:00 11.4 3.1 57 8 21 24.1 100.33     LegendNANA
22:00 11.1 3.6 60 9 14 24.1 100.32     Cloudy
23:00 10.9 3.9 62 9 19 24.1 100.22     LegendNANA

Notes on Data Quality.

Legend

  • E = Estimated
  • M = Missing
  • NA = Not Available*
  • [empty] = Indicates an unobserved value
Date modified: